Weather History for KFMY - May, 2012

Change the Weather History Date:

Saturday, May 19, 2012

  Actual Average Record
Temperature  
Mean Temperature 81 °F 80 °F  
Max Temperature 91 °F 90 °F 96 °F (1944)
Min Temperature 71 °F 69 °F 58 °F (1945)
Degree Days  
Heating Degree Days 0 0  
Month to date heating degree days 0 0  
Since 1 July heating degree days 129 287  
Cooling Degree Days 16 15  
Month to date cooling degree days 297 247  
Year to date cooling degree days 1227 877  
Growing Degree Days 30 (Base 50)    
Moisture  
Dew Point 68 °F    
Average Humidity 73    
Maximum Humidity 90    
Minimum Humidity 44    
Precipitation  
Precipitation 0.03 in 0.08 in 2.20 in (2002)
Month to date precipitation 5.58 1.19  
Year to date precipitation 9.61 10.34  
Sea Level Pressure  
Sea Level Pressure 29.92 in    
Wind  
Wind Speed 5 mph (East)    
Max Wind Speed 21 mph    
Max Gust Speed 25 mph    
Visibility 10 miles    
Events Rain    
T = Trace of Precipitation, MM = Missing Value Source: NWS Daily Summary

Daily Weather History Graph

Daily Weather History Graph

Search for Another Location

Airport or City:

Trip Planner

Search our weather history database for the weather conditions in past years. The results will help you decide how hot, cold, wet, or windy it might be!

Date:

Astronomy

May. 19, 2012 Rise Set
Actual Time 6:38 AM EDT 8:10 PM EDT
Civil Twilight 6:12 AM EDT 8:35 PM EDT
Nautical Twilight 5:42 AM EDT 9:05 PM EDT
Astronomical Twilight 5:10 AM EDT 9:37 PM EDT
Moon 5:35 AM EDT (5/19) 7:15 PM EDT (5/19)
Length of Visible Light 14h 22m
Length of Day
13h 31m
Waning Crescent, 2% of the Moon is Illuminated
May 19
Waning Crescent
May 20
New
May 28
First Quarter
Jun 4
Full
Jun 11
Last Quarter

Hourly Weather History & Observations

Time (EDT) Temp. Heat Index Dew Point Humidity Pressure Visibility Wind Dir Wind Speed Gust Speed Precip Events Conditions
12:53 AM 75.9 °F - 69.1 °F 79% 29.93 in 10.0 mi Calm Calm - N/A   Clear
1:53 AM 75.9 °F - 68.0 °F 76% 29.92 in 10.0 mi NNW 3.5 mph - N/A   Clear
2:53 AM 75.0 °F - 69.1 °F 82% 29.91 in 10.0 mi Calm Calm - N/A   Clear
3:53 AM 73.9 °F - 69.1 °F 85% 29.91 in 10.0 mi Calm Calm - N/A   Clear
4:53 AM 73.0 °F - 68.0 °F 84% 29.91 in 10.0 mi Calm Calm - N/A   Clear
5:53 AM 71.1 °F - 68.0 °F 90% 29.91 in 10.0 mi Calm Calm - N/A   Partly Cloudy
6:53 AM 71.1 °F - 68.0 °F 90% 29.92 in 9.0 mi Calm Calm - N/A   Clear
7:53 AM 73.0 °F - 69.1 °F 87% 29.93 in 10.0 mi Calm Calm - N/A   Clear
8:53 AM 79.0 °F - 71.1 °F 77% 29.94 in 10.0 mi ENE 4.6 mph - N/A   Clear
9:53 AM 80.1 °F 82.9 °F 69.1 °F 69% 29.95 in 10.0 mi ESE 3.5 mph - N/A   Clear
10:53 AM 84.0 °F 87.8 °F 69.1 °F 61% 29.95 in 10.0 mi East 4.6 mph - N/A   Clear
11:53 AM 86.0 °F 88.8 °F 66.9 °F 53% 29.95 in 10.0 mi Variable 5.8 mph - N/A   Clear
12:53 PM 88.0 °F 89.6 °F 64.9 °F 46% 29.94 in 10.0 mi Variable 3.5 mph - N/A   Scattered Clouds
1:53 PM 87.1 °F 89.2 °F 66.0 °F 49% 29.92 in 10.0 mi WNW 4.6 mph - N/A   Mostly Cloudy
2:53 PM 90.0 °F 91.7 °F 64.9 °F 43% 29.89 in 10.0 mi WSW 9.2 mph - N/A   Mostly Cloudy
3:53 PM 89.1 °F 92.9 °F 68.0 °F 50% 29.88 in 10.0 mi West 8.1 mph - N/A   Scattered Clouds
4:53 PM 84.9 °F 87.6 °F 66.9 °F 55% 29.87 in 10.0 mi NE 4.6 mph - 0.01 in Rain Light Rain
5:53 PM 79.0 °F - 69.1 °F 72% 29.88 in 10.0 mi ESE 5.8 mph - 0.00 in   Mostly Cloudy
6:53 PM 77.0 °F - 66.9 °F 71% 29.90 in 10.0 mi East 18.4 mph 25.3 mph N/A   Mostly Cloudy
7:06 PM 75.2 °F - 66.2 °F 73% 29.91 in 10.0 mi ENE 15.0 mph 25.3 mph N/A   Overcast
7:53 PM 73.9 °F - 70.0 °F 87% 29.93 in 10.0 mi East 11.5 mph - 0.02 in   Overcast
8:53 PM 73.0 °F - 69.1 °F 87% 29.95 in 10.0 mi ESE 9.2 mph - N/A   Overcast
9:53 PM 73.0 °F - 69.1 °F 87% 29.96 in 10.0 mi East 4.6 mph - N/A   Scattered Clouds
10:53 PM 72.0 °F - 68.0 °F 87% 29.98 in 10.0 mi East 3.5 mph - N/A   Clear
11:53 PM 71.1 °F - 68.0 °F 90% 29.97 in 10.0 mi East 3.5 mph - N/A   Clear